This demonstration page uses our WeatherBlox Daily Observations layout. Learn more.

40.92945, -100.16068

Hourly Observations for May 11, 2016

Temp ( °F °C ) Dew Point ( °F °C ) Humidity (%) Winds ( mph kmh ) Pressure ( in mb ) Visibility ( mi km ) Precip ( " mm )
12:15 am 00:15 Cloudy with Light Rain 52 11.2 47 8.6 84 84 N 12 19 30.03 1017 10 16.0934 0.03 0.762
12:35 am 00:35 Cloudy with Rain 52 11.1 47 8.5 84 84 N 10 17 30.03 1017 10 16.0934 0.06 1.524
12:55 am 00:55 Cloudy with Heavy Rain 51 10.8 48 8.8 88 88 NW 14 22 30.06 1018 5 8.0467 0.1 2.54
1:15 am 01:15 Cloudy with Heavy Rain 51 10.5 48 8.8 89 89 N 17 28 30.03 1017 5 8.0467 0.05 1.27
1:35 am 01:35 Cloudy with Rain 51 10.3 47 8.6 89 89 N 17 28 30.03 1017 10 16.0934 0.1 2.54
1:55 am 01:55 Cloudy with Heavy Rain 50 10.2 48 8.7 91 91 N 8 13 30.09 1019 7 11.26538 0.18 4.572
2:15 am 02:15 Cloudy with Heavy Rain 50 10.1 47 8.6 91 91 N 9 15 30.09 1019 5 8.0467 0.1 2.54
2:35 am 02:35 Cloudy with Rain 50 10 47 8.5 91 91 NE 10 17 30.06 1018 10 16.0934 0.17 4.318
2:55 am 02:55 Cloudy with Rain 49 9.7 47 8.3 91 91 NE 10 17 30.06 1018 7 11.26538 0.24 6.096
3:15 am 03:15 Cloudy with Heavy Rain 49 9.7 47 8.3 91 91 NE 10 17 30.06 1018 7 11.26538 0.05 1.27
3:35 am 03:35 Cloudy with Light Rain 49 9.4 46 8 91 91 ENE 16 26 30 1016 10 16.0934 0.12 3.048
3:55 am 03:55 Mostly Cloudy with Light Rain 49 9.3 46 8 92 92 E 13 20 30.03 1017 10 16.0934 0.13 3.302
4:15 am 04:15 Partly Cloudy 49 9.2 46 7.7 90 90 ENE 8 13 30 1016 10 16.0934 N/A
4:35 am 04:35 Clear 48 9.1 46 7.7 91 91 NNW 8 13 30 1016 10 16.0934 N/A
4:55 am 04:55 Clear 48 9 46 7.6 91 91 NW 6 9 30 1016 10 16.0934 N/A
5:15 am 05:15 Clear 48 8.8 46 7.6 92 92 NW 9 15 30.03 1017 10 16.0934 N/A
5:35 am 05:35 Clear 48 8.7 46 7.5 92 92 NW 6 9 30.03 1017 10 16.0934 N/A
5:55 am 05:55 Clear 47 8.5 45 7.3 92 92 NW 8 13 30.06 1018 10 16.0934 N/A
6:15 am 06:15 Clear 47 8.3 45 7.1 92 92 NW 10 17 30.06 1018 10 16.0934 N/A
6:35 am 06:35 Partly Cloudy 47 8.1 45 7 93 93 NW 8 13 30.06 1018 10 16.0934 N/A
6:55 am 06:55 Partly Cloudy 47 8.3 45 7.1 92 92 NW 8 13 30.06 1018 10 16.0934 0 0
7:15 am 07:15 Partly Cloudy 48 9 46 7.7 92 92 NW 9 15 30.06 1018 10 16.0934 N/A
7:35 am 07:35 Partly Cloudy 49 9.2 46 7.8 91 91 NW 9 15 30.06 1018 10 16.0934 N/A
7:55 am 07:55 Partly Cloudy 49 9.5 46 8 90 90 NW 10 17 30.06 1018 10 16.0934 N/A
8:15 am 08:15 Mostly Cloudy 49 9.6 47 8.2 91 91 NW 10 17 30.06 1018 10 16.0934 N/A
8:35 am 08:35 Partly Cloudy 52 10.9 49 9.4 91 91 NW 14 22 30.03 1017 10 16.0934 N/A
8:55 am 08:55 Partly Cloudy 53 11.5 49 9.3 86 86 WNW 14 22 30.03 1017 10 16.0934 N/A
9:15 am 09:15 Partly Cloudy 53 11.6 48 8.8 83 83 NW 17 28 30.03 1017 10 16.0934 N/A
9:35 am 09:35 Partly Cloudy 54 12.4 47 8.6 78 78 NW 16 26 30.06 1018 10 16.0934 N/A
9:55 am 09:55 Mostly Cloudy 55 12.5 47 8.4 76 76 NW 15 24 30.06 1018 10 16.0934 N/A
10:15 am 10:15 Partly Cloudy 54 12.1 46 7.5 74 74 NNW 16 26 30.06 1018 10 16.0934 N/A
10:35 am 10:35 Sunny 56 13.2 47 8.6 74 74 NNW 17 28 30.09 1019 10 16.0934 N/A
10:55 am 10:55 Sunny 58 14.3 48 8.9 70 70 NW 14 22 30.06 1018 10 16.0934 N/A
11:15 am 11:15 Sunny 58 14.2 46 7.9 66 66 NW 18 30 30.06 1018 10 16.0934 N/A
11:35 am 11:35 Sunny 58 14.4 45 7.3 63 63 NW 17 28 30.06 1018 10 16.0934 N/A
11:55 am 11:55 Sunny 59 14.8 44 6.7 59 59 NW 15 24 30.06 1018 10 16.0934 N/A
12:15 pm 12:15 Sunny 60 15.8 46 7.5 58 58 NW 13 20 30.06 1018 10 16.0934 N/A
12:35 pm 12:35 Sunny 61 16 46 7.6 58 58 NW 15 24 30.06 1018 10 16.0934 N/A
12:55 pm 12:55 Sunny 62 16.6 45 7.2 54 54 NNW 18 30 30.06 1018 10 16.0934 N/A
1:15 pm 13:15 Sunny 63 17.1 45 7.2 52 52 NW 16 26 30 1016 10 16.0934 N/A
1:35 pm 13:35 Sunny 63 17.4 45 7 51 51 NW 15 24 30 1016 10 16.0934 N/A
1:55 pm 13:55 Sunny 64 17.9 43 6.2 46 46 WNW 16 26 30 1016 10 16.0934 N/A
2:15 pm 14:15 Sunny 64 18 44 6.6 47 47 W 16 26 30 1016 10 16.0934 N/A
2:35 pm 14:35 Sunny 64 17.9 41 5 43 43 WNW 18 30 30 1016 10 16.0934 N/A
2:55 pm 14:55 Sunny 65 18.3 41 4.8 41 41 WNW 18 30 30 1016 10 16.0934 N/A
3:15 pm 15:15 Sunny 65 18.4 41 4.9 41 41 WNW 22 35 30 1016 10 16.0934 N/A
3:35 pm 15:35 Sunny 64 18 38 3.3 38 38 WNW 22 35 30 1016 10 16.0934 N/A
3:55 pm 15:55 Sunny 64 18 37 2.6 36 36 WNW 21 33 30 1016 10 16.0934 N/A
4:15 pm 16:15 Sunny 65 18.2 39 3.7 38 38 WNW 21 33 30 1016 10 16.0934 N/A
4:35 pm 16:35 Sunny 65 18.4 38 3.1 36 36 WNW 20 31 30 1016 10 16.0934 N/A
4:55 pm 16:55 Sunny 65 18.5 37 2.8 35 35 W 20 31 30 1016 10 16.0934 N/A
5:15 pm 17:15 Sunny 65 18.3 37 2.6 35 35 WNW 22 35 30 1016 10 16.0934 N/A
5:35 pm 17:35 Sunny 64 18 36 2.3 35 35 NW 22 35 30 1016 10 16.0934 N/A
5:55 pm 17:55 Sunny 64 17.9 37 2.5 36 36 NW 18 30 30 1016 10 16.0934 N/A
6:15 pm 18:15 Sunny 64 17.5 37 2.7 37 37 NW 17 28 30 1016 10 16.0934 N/A
6:35 pm 18:35 Sunny 62 16.5 37 3 41 41 NNW 22 35 30.03 1017 10 16.0934 N/A
6:55 pm 18:55 Sunny 62 16.5 38 3.4 42 42 NNW 20 31 30.06 1018 10 16.0934 N/A
7:15 pm 19:15 Sunny 60 15.7 38 3.2 43 43 NNW 20 31 30.06 1018 10 16.0934 N/A
7:35 pm 19:35 Sunny 59 15 38 3.2 45 45 NW 18 30 30.09 1019 10 16.0934 N/A
7:55 pm 19:55 Sunny 57 14.1 38 3.5 49 49 NNW 17 28 30.06 1018 10 16.0934 N/A
8:15 pm 20:15 Sunny 56 13.6 39 4 53 53 NNW 13 20 30.12 1020 10 16.0934 N/A
8:35 pm 20:35 Sunny 56 13.3 39 3.9 53 53 NNW 12 19 30.15 1021 10 16.0934 N/A
8:55 pm 20:55 Clear 54 12.2 40 4.4 59 59 NNW 10 17 30.15 1021 10 16.0934 N/A
9:15 pm 21:15 Clear 54 12 39 3.8 58 58 NNW 10 17 30.15 1021 10 16.0934 N/A
9:35 pm 21:35 Clear 53 11.6 38 3.2 57 57 NNW 9 15 30.21 1023 10 16.0934 N/A
9:55 pm 21:55 Clear 51 10.8 38 3.3 60 60 N 9 15 30.21 1023 10 16.0934 N/A
10:15 pm 22:15 Clear 51 10.5 38 3.6 63 63 N 9 15 30.21 1023 10 16.0934 N/A
10:35 pm 22:35 Clear 49 9.5 40 4.2 70 70 N 7 11 30.21 1023 10 16.0934 N/A
10:55 pm 22:55 Clear 48 9.1 39 4.1 71 71 NNW 5 7 30.21 1023 10 16.0934 N/A
11:15 pm 23:15 Clear 47 8.5 40 4.6 77 77 NW 6 9 30.27 1025 10 16.0934 N/A
11:35 pm 23:35 Clear 47 8.4 40 4.7 78 78 W 6 9 30.27 1025 10 16.0934 N/A
11:55 pm 23:55 Clear 47 8.5 41 4.8 78 78 W 6 9 30.27 1025 10 16.0934 N/A

Powered by AerisWeather